TimePST,TemperatureF,Dew PointF,Humidity,Sea Level PressureIn,VisibilityMPH,Wind Direction,Wind SpeedMPH,Gust SpeedMPH,PrecipitationIn,Events,Conditions,WindDirDegrees,DateUTC
12:45 AM,48.2,44.6,87,30.27,9.0,West,5.8,-,N/A,,Overcast,260,2013-02-23 08:45:00
12:53 AM,48.9,45.0,86,30.30,9.0,West,4.6,-,N/A,,Overcast,260,2013-02-23 08:53:00
1:53 AM,50.0,44.1,80,30.28,10.0,SSW,5.8,-,N/A,,Overcast,210,2013-02-23 09:53:00
2:53 AM,48.9,43.0,80,30.26,10.0,WSW,4.6,-,N/A,,Mostly Cloudy,250,2013-02-23 10:53:00
3:10 AM,48.2,42.8,82,30.23,10.0,WSW,6.9,-,N/A,,Mostly Cloudy,250,2013-02-23 11:10:00
4:53 AM,48.9,43.0,80,30.25,10.0,SW,3.5,-,N/A,,Overcast,220,2013-02-23 12:53:00
5:53 AM,48.9,45.0,86,30.25,9.0,NNW,3.5,-,N/A,,Overcast,330,2013-02-23 13:53:00
6:53 AM,48.9,45.0,86,30.25,5.0,West,3.5,-,N/A,,Overcast,280,2013-02-23 14:53:00
7:08 AM,48.2,46.4,93,30.23,3.0,WNW,3.5,-,N/A,,Overcast,290,2013-02-23 15:08:00
7:53 AM,48.9,46.9,93,30.27,4.0,WNW,5.8,-,N/A,,Overcast,300,2013-02-23 15:53:00
8:31 AM,50.0,46.4,87,30.25,10.0,WNW,8.1,-,N/A,,Mostly Cloudy,290,2013-02-23 16:31:00
8:39 AM,51.8,46.4,82,30.24,10.0,West,8.1,-,N/A,,Mostly Cloudy,280,2013-02-23 16:39:00
8:44 AM,51.8,46.4,82,30.25,10.0,WNW,9.2,-,N/A,,Overcast,290,2013-02-23 16:44:00
8:53 AM,50.0,46.0,86,30.28,10.0,West,8.1,-,N/A,,Mostly Cloudy,280,2013-02-23 16:53:00
9:02 AM,51.8,44.6,76,30.25,10.0,West,9.2,-,N/A,,Overcast,270,2013-02-23 17:02:00
9:11 AM,51.8,42.8,71,30.25,10.0,WNW,9.2,-,N/A,,Overcast,290,2013-02-23 17:11:00
9:35 AM,51.8,41.0,67,30.25,10.0,West,9.2,-,N/A,,Scattered Clouds,270,2013-02-23 17:35:00
10:53 AM,54.0,41.0,62,30.26,10.0,West,4.6,-,N/A,,Mostly Cloudy,280,2013-02-23 18:53:00
11:53 AM,55.9,41.0,57,30.24,10.0,SW,11.5,-,N/A,,Mostly Cloudy,230,2013-02-23 19:53:00
12:53 PM,57.0,39.9,53,30.21,10.0,West,15.0,-,N/A,,Clear,270,2013-02-23 20:53:00
1:53 PM,57.0,39.9,53,30.19,10.0,WSW,16.1,-,N/A,,Clear,250,2013-02-23 21:53:00
2:53 PM,57.9,39.9,51,30.18,10.0,WSW,15.0,23.0,N/A,,Clear,250,2013-02-23 22:53:00
3:53 PM,57.0,39.9,53,30.17,9.0,West,17.3,24.2,N/A,,Clear,270,2013-02-23 23:53:00
4:53 PM,55.0,39.9,57,30.16,9.0,West,15.0,21.9,N/A,,Clear,270,2013-02-24 00:53:00
5:53 PM,52.0,39.9,63,30.17,9.0,West,15.0,-,N/A,,Clear,270,2013-02-24 01:53:00
6:53 PM,50.0,41.0,71,30.20,9.0,WSW,10.4,-,N/A,,Clear,240,2013-02-24 02:53:00
7:53 PM,50.0,41.0,71,30.22,9.0,WSW,8.1,-,N/A,,Clear,240,2013-02-24 03:53:00
8:53 PM,48.9,39.9,71,30.22,10.0,WSW,6.9,-,N/A,,Clear,250,2013-02-24 04:53:00
9:53 PM,46.0,39.0,76,30.23,9.0,WSW,8.1,-,N/A,,Clear,240,2013-02-24 05:53:00
10:53 PM,46.0,39.0,76,30.23,9.0,WSW,5.8,-,N/A,,Clear,250,2013-02-24 06:53:00
11:53 PM,44.1,37.0,76,30.22,10.0,WSW,8.1,-,N/A,,Clear,250,2013-02-24 07:53:00